RH
83 83 84 85 85 86 86 86 87 86 81 84 85 85 86 91 90 79 41 24 32 64 55 50 40 30 23 26 57 68 83 90 73 64 63 47 48 40 46 56 48 49 61 65 73
84 85 84 85 86 87 87 87 87 87 83 84 84 84 85 91 86 58 41 54 60 70 20 21 28 22 28 30 64 74 84 76 64 57 57 51 54 43 52 55 58 66 64 66 73
85 84 85 86 86 86 86 87 87 87 84 85 83 82 85 93 56 18 56 58 63 64 17 16 16 14 27 36 59 71 72 60 54 57 54 49 56 42 56 67 57 73 72 68 76
82 84 86 87 86 87 87 87 87 88 85 84 82 81 87 91 28 24 68 59 65 54 14 13 14 16 22 27 48 60 54 49 56 52 51 55 55 51 50 56 47 60 62 67 75
86 87 88 88 88 88 87 87 88 89 86 84 82 83 93 52 27 30 74 60 63 20 13 14 19 21 24 24 49 51 60 46 53 49 55 61 53 60 56 50 48 55 59 66 70
87 88 89 89 88 87 87 90 89 89 87 82 82 84 73 24 11 39 52 47 24 15 13 14 16 18 22 18 31 48 59 58 53 61 63 59 61 61 56 51 52 56 60 62 64
88 89 89 89 88 87 88 91 89 88 87 83 84 75 69 19 22 31 26 24 17 13 14 15 17 21 22 18 40 50 56 56 58 60 58 57 68 68 58 50 54 56 58 59 60
89 89 88 88 88 89 91 92 90 87 86 86 83 82 35 22 28 20 19 15 15 15 15 16 17 20 18 18 47 55 62 65 56 59 61 66 80 68 63 54 55 55 57 58 59
92 90 90 90 91 92 93 92 88 81 85 83 88 79 35 37 29 19 16 13 13 15 16 9 15 17 18 28 38 64 74 75 60 55 64 67 72 63 61 49 54 53 56 56 58
91 92 92 92 92 92 92 90 82 90 77 68 54 53 31 21 21 17 18 10 11 12 13 12 16 18 22 28 39 39 76 69 65 59 57 64 71 58 62 55 47 47 44 51 56
89 90 90 90 91 92 92 73 55 58 66 34 37 31 23 21 17 18 16 13 14 12 15 17 17 18 16 19 25 28 49 62 59 54 58 60 59 62 60 56 58 64 58 46 50
89 89 90 90 90 92 92 47 43 42 45 37 34 30 22 23 25 21 17 20 19 21 16 16 18 14 14 14 16 19 24 31 49 48 60 64 61 59 61 56 55 56 57 46 48
90 89 89 90 92 91 62 45 38 48 48 29 34 34 32 26 27 28 16 17 18 21 16 17 14 12 13 14 14 14 23 36 39 54 54 58 62 61 60 58 56 57 53 43 44
88 88 87 91 65 75 49 41 45 42 42 29 30 28 30 27 27 22 16 14 18 19 19 19 15 14 14 14 14 16 12 13 33 53 60 53 65 61 74 70 59 52 50 44 44
87 86 88 92 90 62 34 55 43 29 43 23 24 19 26 20 21 19 13 13 16 15 16 16 15 16 16 14 12 12 13 19 32 60 53 55 61 50 81 77 65 61 48 44 42
86 86 87 91 98 74 61 54 33 42 41 24 16 19 20 20 17 18 16 14 14 16 20 14 15 14 14 12 10 8 13 16 30 58 72 51 56 48 86 66 53 50 53 45 43
87 87 88 69 41 58 56 37 41 52 27 19 20 18 17 17 18 17 20 21 23 27 27 22 20 18 16 19 18 14 17 24 27 25 28 38 48 43 38 62 50 48 49 48 41
89 93 92 78 83 61 45 40 63 31 34 22 22 20 17 18 18 18 24 27 24 26 32 30 28 19 16 17 19 16 16 22 23 25 22 44 51 36 37 37 50 47 44 46 43
91 87 93 75 76 65 42 53 34 39 27 26 25 23 24 21 20 19 20 25 22 22 26 32 26 18 15 15 14 22 18 16 20 40 26 28 32 31 30 36 49 52 50 47 45
99 91 69 63 61 49 49 58 52 33 27 31 34 26 32 29 25 27 24 18 17 19 21 26 26 18 15 16 17 17 15 20 25 29 28 26 46 43 32 35 41 46 51 51 48
83 54 44 59 47 52 46 58 41 30 27 32 35 28 28 30 27 29 25 18 18 18 20 23 25 20 20 20 19 19 22 24 23 27 26 30 28 35 34 32 38 48 52 50 55
84 59 46 45 54 77 68 53 43 32 27 30 31 25 26 26 28 27 24 24 20 21 29 23 26 24 21 19 18 18 17 21 24 24 37 30 24 24 50 40 43 48 53 68 57
89 89 51 40 62 63 53 37 34 34 36 27 29 29 32 33 40 30 33 26 31 36 45 30 33 34 25 24 22 19 17 22 25 28 32 31 22 42 64 51 68 67 80 81 75
86 74 61 57 61 66 58 43 34 26 28 26 26 32 36 39 39 40 38 30 30 32 65 40 37 32 33 26 27 28 24 20 22 30 28 27 20 28 51 65 75 80 81 77 83
92 88 78 78 64 70 67 45 37 38 29 29 30 34 38 64 49 50 40 36 31 43 40 45 45 65 41 30 27 25 23 23 24 23 25 23 23 26 48 60 71 74 78 76 70
85 83 81 83 77 59 61 55 44 40 38 35 38 34 39 44 48 49 43 43 48 32 39 49 60 74 53 38 37 27 23 24 23 24 24 31 36 35 65 62 67 72 73 62 70
93 84 82 80 75 66 66 58 45 44 38 33 35 37 39 34 30 30 33 38 37 40 38 56 54 67 69 53 45 40 29 24 24 26 26 33 27 46 68 61 65 70 75 79 85
Wind_Speed
13 13 13 13 14 14 14 15 14 15 14 13 12 12 12 14 14 3 7 11 8 8 7 9 4 5 4 3 5 2 3 3 3 1 5 5 2 5 6 12 3 3 4 9 13
14 14 14 14 15 15 15 15 14 14 14 12 11 11 11 11 3 8 11 14 13 12 6 8 6 8 3 3 3 3 2 5 6 4 5 2 4 5 5 8 3 8 11 15 13
15 15 16 16 16 16 16 15 15 14 13 10 9 8 9 7 3 9 4 17 17 13 4 6 5 4 3 2 6 5 7 4 6 7 4 4 2 1 14 2 8 15 16 14 13
15 16 16 16 16 16 16 15 15 14 12 9 8 6 7 1 2 1 4 19 14 10 6 6 4 5 3 4 6 6 5 5 2 8 7 5 2 6 8 6 10 16 19 15 15
16 17 17 17 17 16 16 16 14 13 11 8 6 4 2 1 10 3 8 16 8 7 7 6 4 4 3 2 6 5 7 6 3 7 1 4 6 6 6 12 13 14 16 16 13
17 17 17 18 17 17 17 16 15 13 10 6 3 4 2 3 4 5 11 7 6 7 6 6 7 5 2 4 4 7 8 2 2 8 5 3 3 4 2 13 15 16 16 14 15
18 18 18 18 19 18 18 17 16 14 9 6 7 4 2 14 4 5 9 6 6 6 6 5 4 3 1 7 1 5 4 1 4 9 6 5 5 8 5 17 17 17 16 15 15
18 19 19 19 19 20 19 19 18 13 6 5 8 2 8 5 1 3 2 2 2 2 2 4 4 2 4 3 1 3 4 3 5 6 3 8 6 7 10 18 17 16 14 14 15
17 19 19 20 19 18 19 21 18 3 6 10 3 2 10 2 3 7 6 5 4 1 1 4 2 4 3 4 4 3 4 1 4 6 4 12 4 6 12 15 15 16 15 14 13
18 18 19 20 19 18 19 17 1 9 5 4 4 3 6 3 4 7 4 5 5 4 1 4 4 2 4 5 5 5 1 3 6 4 5 9 6 3 11 13 17 15 15 15 15
21 20 20 21 20 16 11 2 3 1 3 9 7 4 5 6 2 3 6 6 2 4 4 1 4 8 9 6 3 2 3 5 5 6 6 12 10 9 11 13 13 9 9 13 18
21 22 22 23 22 18 4 2 3 2 9 13 14 9 4 4 5 2 7 6 5 5 3 5 8 11 4 4 4 5 5 8 8 5 5 4 16 5 10 16 17 14 12 13 13
21 22 22 24 25 2 2 5 3 4 2 8 7 7 6 10 9 8 11 6 6 6 6 8 10 4 5 5 5 6 6 6 11 1 5 2 7 6 8 6 8 8 8 12 19
21 21 21 26 1 4 5 3 6 3 5 8 4 7 6 9 4 9 9 7 2 11 8 6 7 9 5 7 8 7 10 15 11 5 6 12 6 6 3 7 10 14 12 13 17
22 20 17 6 5 2 4 7 7 4 3 1 2 2 5 10 3 4 6 5 9 7 8 10 2 5 5 13 7 14 8 10 9 9 3 2 3 8 2 6 14 10 11 14 17
24 19 15 3 2 8 8 8 4 6 3 4 4 6 4 2 1 4 5 4 3 5 1 9 3 6 9 9 7 12 4 7 6 4 1 9 6 7 6 11 11 15 13 15 16
27 23 8 2 4 2 5 5 6 3 5 6 4 2 3 6 3 3 7 7 7 4 6 4 7 5 6 5 1 5 7 3 4 3 7 2 5 11 8 11 18 20 17 15 18
29 23 7 5 3 4 3 6 2 3 5 4 3 2 5 3 3 2 6 7 6 4 4 5 9 9 6 9 6 7 10 8 7 4 7 0 6 9 8 7 7 12 14 17 15
23 3 2 5 8 1 6 3 6 5 3 8 9 4 3 2 2 3 7 6 8 11 9 6 7 4 5 5 9 3 4 5 8 3 3 4 9 11 7 5 6 9 10 16 14
4 4 4 4 7 5 6 4 4 4 5 3 3 3 2 2 3 2 3 3 6 12 7 4 8 7 4 4 3 7 7 3 3 5 5 6 5 7 7 10 9 8 11 13 15
4 4 4 3 2 6 3 6 5 6 4 4 4 5 3 1 2 1 3 5 3 4 11 7 5 13 3 4 8 1 2 6 6 6 8 3 8 9 11 10 12 11 12 15 15
4 3 4 2 5 2 2 4 5 7 6 6 4 8 5 4 4 4 5 2 10 3 1 6 6 13 15 4 2 3 8 7 7 6 3 4 10 3 8 11 8 9 9 7 13
2 4 5 4 1 3 6 6 3 4 5 6 4 2 1 4 1 4 1 4 9 6 2 2 1 2 10 5 3 4 5 6 5 5 7 6 9 3 7 8 4 7 6 6 5
2 4 5 5 2 2 4 5 6 6 4 5 5 3 4 2 2 1 3 3 5 6 5 5 3 5 7 8 2 3 4 4 7 4 3 7 8 7 9 7 4 5 3 6 6
3 1 2 4 4 3 2 3 5 7 6 8 5 6 5 2 3 3 3 5 3 8 7 5 2 2 7 8 4 3 5 6 6 6 6 7 10 10 10 11 6 7 8 8 10
2 3 5 2 4 5 5 3 4 5 3 5 5 6 6 5 2 1 2 2 1 6 6 6 1 1 4 4 2 6 8 6 5 5 4 3 6 8 4 5 6 7 8 11 6
3 3 3 3 4 2 2 3 4 7 6 3 5 3 1 3 4 6 5 3 4 4 1 2 2 3 5 5 6 5 7 6 3 4 6 6 10 3 3 6 9 10 7 8 7
Wind_Direction
356 353 348 345 339 335 332 331 329 331 333 328 322 320 321 322 313 157 236 219 191 172 116 124 134 198 193 212 125 117 59 151 257 111 278 341 16 117 91 135 189 157 130 129 128
353 348 345 340 337 334 331 330 328 328 331 324 314 311 316 328 296 251 228 212 197 160 135 163 156 180 177 203 120 112 149 229 194 158 245 4 42 139 111 159 70 83 102 121 129
349 347 341 334 334 333 330 328 327 327 330 323 311 300 309 320 313 247 202 197 187 176 167 158 134 168 185 168 177 176 198 208 224 218 249 324 16 81 132 241 185 160 149 147 144
346 336 333 332 331 330 328 324 324 325 328 321 308 289 302 274 199 102 278 184 186 165 158 141 134 156 208 201 185 200 223 164 170 191 181 206 170 111 166 209 174 163 153 155 162
339 336 333 331 330 328 325 320 321 321 321 314 300 256 279 30 252 318 106 156 133 156 156 141 150 173 216 252 169 233 179 226 231 126 283 110 216 132 229 147 151 164 155 166 176
337 334 331 329 328 326 322 317 318 318 310 295 252 207 176 268 241 161 129 148 155 153 147 156 192 191 273 269 197 179 175 219 174 144 154 175 319 16 150 148 160 168 172 178 182
335 333 330 328 326 323 319 313 316 313 297 275 192 205 158 236 23 135 131 176 170 169 148 195 179 83 349 323 233 79 98 128 271 157 178 145 287 225 192 165 166 180 179 187 191
332 331 328 326 322 319 316 313 314 304 273 160 170 229 246 243 254 256 169 109 218 235 128 174 150 128 176 244 108 90 85 209 183 142 224 143 243 205 163 167 177 189 188 192 196
330 327 325 322 318 316 314 315 313 249 146 144 128 164 268 306 171 215 170 172 135 332 306 287 171 182 59 90 21 351 239 264 310 210 157 184 239 166 158 177 189 194 195 196 201
331 325 322 318 318 318 320 310 191 109 137 200 257 356 279 198 193 187 175 155 150 114 27 149 64 113 64 85 203 231 206 278 253 209 184 216 227 147 175 188 195 198 194 194 199
328 325 322 318 319 317 335 38 36 40 226 198 193 238 280 280 152 172 150 132 105 89 157 52 94 227 234 172 159 313 237 244 248 200 179 214 251 190 174 211 208 207 197 190 201
325 323 323 320 319 322 155 125 115 228 297 229 236 247 262 54 344 261 111 136 142 184 102 21 240 232 252 155 195 223 253 267 289 189 184 209 242 231 183 209 207 201 206 186 188
322 323 326 321 319 128 247 235 339 317 236 290 192 199 196 147 203 246 151 154 143 147 175 173 226 151 176 254 234 237 208 242 241 61 206 32 286 194 235 218 181 201 195 188 184
323 324 328 326 42 323 269 290 311 215 44 276 237 256 151 155 228 211 171 137 153 188 155 221 249 230 191 238 160 261 206 241 246 157 225 164 257 290 240 216 208 203 202 200 191
322 325 325 321 297 263 292 324 322 63 7 96 158 98 164 156 170 224 166 72 171 183 122 241 227 174 205 235 147 233 165 205 229 195 72 191 101 268 6 237 229 198 195 199 196
319 324 324 131 215 246 313 315 46 41 259 345 122 158 137 261 288 106 135 87 170 143 256 229 238 165 221 258 203 257 120 38 47 90 101 242 166 272 204 216 236 202 191 192 196
319 316 290 228 227 322 311 43 44 139 328 347 359 178 159 182 198 122 151 191 170 134 251 317 246 225 180 248 358 99 62 310 339 358 213 221 135 232 246 236 218 210 191 191 197
323 315 189 215 260 329 53 56 155 244 284 327 305 227 129 117 283 113 130 196 259 128 102 186 312 177 183 174 210 197 158 158 215 223 253 166 223 254 225 272 223 232 202 193 192
322 337 163 256 190 348 73 80 216 218 323 324 323 81 31 31 106 148 192 212 210 178 180 167 266 271 210 176 142 212 208 199 106 23 42 239 289 307 277 266 208 219 195 199 188
334 340 281 127 160 70 78 231 244 234 333 352 315 33 148 300 83 76 214 227 232 197 166 232 305 200 250 163 226 162 160 81 9 147 239 286 279 241 291 251 237 207 200 204 198
21 33 304 198 90 49 146 232 269 260 7 322 270 280 182 244 139 200 225 283 119 305 178 155 148 266 43 188 215 135 187 48 118 140 174 227 265 221 245 244 225 214 201 193 195
357 54 317 17 49 31 179 214 294 295 298 263 234 206 169 170 194 232 218 310 337 299 226 214 181 246 228 215 262 228 207 145 131 250 233 174 262 242 263 270 226 204 193 196 193
34 272 306 89 97 320 302 296 265 315 307 12 311 330 244 169 127 210 32 60 27 44 53 184 257 292 298 326 15 202 197 127 103 76 200 156 264 279 302 298 40 185 183 200 181
48 7 330 40 64 102 349 287 321 314 283 341 263 334 16 351 351 23 357 2 359 12 1 124 115 165 211 235 199 193 195 153 124 120 187 219 275 287 269 261 152 139 156 163 185
31 335 169 331 338 345 283 319 331 358 328 359 343 351 263 210 42 78 6 338 13 351 13 76 139 350 276 256 257 236 242 178 152 181 158 255 193 245 237 224 169 172 160 179 195
49 23 350 284 315 334 2 10 337 340 276 340 358 343 45 96 121 285 53 97 136 336 24 356 277 349 277 297 299 244 245 243 215 146 231 175 271 241 153 104 147 160 187 191 147
326 339 100 299 343 3 150 319 323 347 294 6 305 300 261 184 211 208 190 213 209 158 295 38 54 42 264 316 312 291 233 216 201 191 158 163 230 242 195 193 194 198 180 175 147